Location: Ferintosh
(52.7647°N, 112.9692°W)
Time: 13:59:19
(UTC+00:00)

Vanguard 1 Rocket - All Passes

Search period start: 18 May 2024 00:00
Search period end: 28 May 2024 00:00
Orbit: 651 x 4220 km, 34.3° (Epoch: 17 May)

Date Brightness Start Highest point End Pass type
(mag) Time Alt. Az. Time Alt. Az. Time Alt. Az.
18 May - 16:20:35 10° S 16:30:43 18° SSE 16:38:03 10° ESE daylight
18 May - 18:45:46 10° SW 18:56:29 25° S 19:03:15 10° SE daylight
18 May - 21:14:29 10° WSW 21:20:48 19° SSW 21:25:17 10° SSE daylight
19 May - 15:10:06 10° S 15:17:56 14° SSE 15:24:17 10° SE daylight
19 May - 17:31:51 10° SW 17:44:13 25° S 17:52:07 10° ESE daylight
19 May - 20:00:00 10° WSW 20:09:21 25° SSW 20:15:19 10° SE daylight
19 May - 22:31:17 10° SW 22:32:44 11° SW 22:34:05 10° SSW daylight
20 May - 16:18:33 10° SSW 16:31:33 22° SSE 16:40:22 10° ESE daylight
20 May - 18:45:28 10° SW 18:57:27 28° S 19:04:47 10° SE daylight
20 May - 21:15:08 10° WSW 21:21:41 18° SSW 21:26:20 10° SSE daylight
21 May - 15:06:31 10° S 15:18:38 19° SSE 15:27:37 10° ESE daylight
21 May - 17:31:02 10° SW 17:45:06 29° S 17:53:46 10° ESE daylight
21 May - 20:00:14 10° WSW 20:10:16 26° SSW 20:16:34 10° SE daylight
22 May - 13:57:08 10° SSE 14:05:34 13° SE 14:12:40 10° ESE daylight
22 May - 16:17:05 10° SSW 16:32:21 27° SSE 16:42:14 10° ESE daylight
22 May - 18:45:18 10° WSW 18:58:21 30° S 19:06:09 10° SE daylight
22 May - 21:15:53 10° WSW 21:22:28 18° SSW 21:27:12 10° S daylight
23 May - 15:04:07 10° SSW 15:19:15 23° SSE 15:29:55 10° ESE daylight
23 May - 17:30:26 10° SW 17:45:57 32° S 17:55:15 10° ESE daylight
23 May - 20:00:32 10° WSW 20:11:05 26° SSW 20:17:42 10° SSE daylight
24 May - 13:52:55 10° S 14:06:00 18° SE 14:16:18 10° ESE daylight
24 May - 16:15:58 10° SW 16:33:03 31° SSE 16:43:50 10° ESE daylight
24 May - 18:45:15 10° WSW 18:59:11 32° SSW 19:07:24 10° SE daylight
24 May - 21:16:46 10° WSW 21:23:08 16° SW 21:27:49 10° S daylight
25 May - 12:45:37 10° SSE 12:52:50 12° SE 12:59:19 10° ESE daylight
25 May - 15:02:21 10° SSW 15:19:48 28° SSE 15:31:46 10° ESE daylight
25 May - 17:30:00 10° SW 17:46:42 35° S 17:56:35 10° ESE daylight
25 May - 20:00:53 10° WSW 20:11:48 25° SSW 20:18:41 10° SSE daylight
26 May - 13:50:08 10° S 14:06:22 23° SSE 14:18:42 10° ESE daylight
26 May - 16:15:08 10° SW 16:33:42 35° S 16:45:15 10° ESE daylight
26 May - 18:45:15 10° WSW 18:59:53 32° SSW 19:08:32 10° SE daylight
26 May - 21:17:50 10° WSW 21:23:40 15° SW 21:28:07 10° SSW daylight
27 May - 12:40:14 10° S 12:52:59 17° SE 13:03:49 10° ESE daylight
27 May - 15:01:01 10° SSW 15:20:18 32° SSE 15:33:19 10° ESE daylight
27 May - 17:29:43 10° WSW 17:47:23 37° S 17:57:48 10° SE daylight
27 May - 20:01:19 10° WSW 20:12:23 24° SSW 20:19:30 10° SSE daylight
